Back to catalog

NAJM-1

AliveScienceSSO
NORAD 47947·PAYLOAD·🇸🇦 Saudi Arabia
This satellite name has not been confirmed by official sources yet.

Launched Mar 22, 2021 from Baikonur Cosmodrome

Loading…

Next Passes (next 24 hours)

TLE

FreshSource: Space-Track

Epoch: Sep 14, 2026, 14:39 UTC

1 47947U 21022R   26257.61044453 -.00000561  00000-0 -31526-4 0  9992
2 47947  97.3421 129.4497 0016187 221.2186 138.7823 15.09049274301490

Track NAJM-1 in real time with AllMySat

Download on the App Store